Wind_Speed
76 72 70 68 72 73 75 79 78 79 80 81 84 85 87 92 89 86 85 89 88 89 89 88 94 94 87 87 88 81 86 78 74 64 58 48 47 46 44 41 34 30 30
83 81 77 75 78 78 80 81 82 83 85 86 90 88 90 88 89 87 89 89 89 91 92 92 91 88 87 89 81 79 79 69 61 55 50 52 49 45 43 41 39 34 30
83 82 83 79 80 80 85 83 86 87 88 92 91 93 90 90 89 91 90 90 92 91 95 85 91 89 83 87 83 74 69 61 55 46 48 46 45 43 38 36 39 34 30
86 86 85 82 82 84 87 90 89 90 93 95 90 90 91 89 88 89 92 91 92 97 83 91 87 84 84 79 73 64 59 55 49 47 46 45 44 47 41 37 34 34 31
86 88 89 91 92 89 91 90 91 92 92 88 90 90 90 86 88 91 92 92 90 92 90 93 85 83 79 74 61 52 51 47 49 51 47 45 43 42 39 37 33 32 32
89 87 84 90 90 92 90 89 89 85 93 91 91 89 85 89 90 90 93 83 89 96 95 86 82 78 73 58 55 47 46 48 49 51 49 44 43 41 37 35 33 28 27
80 84 86 82 80 80 79 80 85 95 94 91 86 87 89 88 89 92 89 87 96 88 84 81 80 73 60 54 47 45 46 48 49 48 45 43 41 36 36 31 28 27 24
73 69 74 75 83 83 83 87 88 89 86 85 89 89 89 90 94 91 90 93 86 82 84 78 69 63 57 51 44 45 46 48 47 43 40 39 36 34 32 30 25 26 26
80 82 85 83 80 82 86 83 88 85 85 88 90 92 88 88 94 90 90 92 89 82 75 71 64 55 54 47 47 45 48 46 43 42 39 33 30 29 28 28 28 25 26
80 82 81 88 89 84 82 79 80 85 84 87 91 89 88 91 93 91 94 83 79 75 74 65 58 54 52 52 48 47 48 45 42 40 39 36 36 32 29 27 29 29 27
75 75 72 73 71 73 78 88 86 84 86 90 88 92 93 87 88 86 84 75 74 67 68 60 55 58 55 51 49 51 50 44 42 43 40 39 38 35 34 34 33 34 33
74 76 77 74 79 80 75 73 79 87 83 89 87 85 89 86 82 81 75 71 67 67 61 59 59 62 63 57 49 49 45 45 44 45 43 41 40 40 40 40 40 40 38
77 73 80 73 80 76 78 80 83 87 86 86 86 85 88 76 72 72 71 66 64 64 62 59 63 62 59 57 54 50 49 49 49 50 50 48 47 45 46 46 45 45 42
64 63 70 70 68 69 76 81 83 82 85 81 86 81 85 75 71 68 65 64 62 64 62 65 64 60 60 56 55 55 56 55 52 53 52 53 52 50 48 49 49 47 45
66 65 68 72 79 78 75 81 82 82 83 81 76 78 72 69 68 68 66 68 65 64 65 65 64 69 69 67 65 64 62 62 60 58 55 54 54 52 52 52 52 51 49
58 60 64 71 73 75 77 84 82 77 72 69 70 69 71 67 65 66 64 66 68 70 72 72 74 73 70 69 69 68 67 67 66 65 62 59 58 57 56 56 56 56 53
61 70 69 73 74 78 81 81 73 63 66 70 76 73 73 68 65 64 67 71 74 76 77 78 77 74 71 71 71 72 73 72 72 70 67 65 63 61 60 59 60 61 62
65 69 72 70 76 73 63 55 54 58 66 69 70 74 71 70 69 72 74 73 77 80 81 82 78 76 74 74 74 74 73 72 72 72 73 73 71 70 70 68 68 68 68
69 67 60 57 55 53 44 37 47 53 57 57 57 60 71 75 79 80 83 83 84 82 84 82 79 76 75 76 76 77 78 79 80 80 79 79 79 79 79 79 78 76 75
58 60 56 52 42 42 34 50 51 62 63 62 70 77 81 83 83 86 83 83 83 83 80 78 78 79 79 80 82 83 84 84 85 85 86 86 86 86 86 86 86 85 84
44 39 42 43 34 32 59 51 55 66 77 82 85 88 87 86 85 85 84 83 81 79 80 81 82 84 86 86 86 87 87 87 88 91 92 93 95 96 98 98 96 96 95
38 37 21 52 37 41 62 57 62 68 72 78 81 81 82 84 83 81 80 82 83 85 86 86 87 88 89 89 89 88 90 93 95 98 100 103 106 108 110 109 108 106 104
38 39 39 45 50 53 56 60 65 71 74 74 75 75 74 76 79 81 82 83 84 85 87 88 88 89 91 93 95 98 100 103 105 108 112 116 119 122 123 123 121 119 118
36 37 39 42 45 48 52 55 60 63 67 70 72 74 75 77 79 81 82 83 83 85 88 90 93 96 99 103 108 111 114 117 119 117 120 122 124 128 131 129 125 124 124
37 39 42 45 48 49 52 55 58 61 63 65 68 71 73 76 79 81 82 83 84 87 91 96 101 106 109 112 114 116 119 123 126 127 125 126 125 125 126 124 120 116 117
39 42 45 48 52 55 57 59 61 64 66 68 70 72 75 78 78 79 80 85 90 95 100 104 108 110 112 116 120 123 123 121 123 124 118 116 116 117 112 108 103 98 101
Wind_Direction
266 267 269 271 272 276 280 282 282 285 284 286 290 294 296 297 299 296 300 303 302 304 308 309 313 312 312 314 312 314 316 309 309 303 298 295 296 296 297 296 292 297 294
266 267 269 273 276 276 280 283 283 284 284 287 291 295 295 295 299 297 299 303 303 307 308 309 310 311 312 313 311 310 311 307 304 298 297 297 294 293 294 298 302 303 299
264 269 272 273 275 276 279 284 286 286 288 292 290 295 298 296 297 298 301 301 304 308 310 312 311 313 312 313 311 308 308 306 300 294 295 296 298 297 298 304 304 305 309
266 269 270 274 276 279 280 282 285 288 290 291 293 297 296 296 297 299 301 302 303 308 312 308 311 314 312 310 305 305 305 303 297 296 289 288 294 297 300 302 302 305 307
267 270 272 275 277 279 281 283 286 289 289 292 293 296 296 294 298 302 302 307 308 311 308 309 309 312 309 306 301 302 299 303 297 296 296 293 296 299 298 298 296 300 303
271 275 276 274 277 278 281 281 284 288 289 292 291 291 296 296 300 302 303 303 304 308 309 308 311 311 303 300 300 301 298 302 298 295 295 293 294 297 293 294 294 296 302
271 272 276 278 280 281 282 283 285 289 288 289 290 292 297 300 301 303 303 299 306 307 308 310 307 303 297 297 295 298 301 300 299 297 296 295 294 293 290 289 293 297 300
268 268 269 273 278 279 281 282 287 286 288 289 292 295 298 298 301 299 298 305 305 309 310 307 300 297 298 298 297 299 303 302 298 297 296 297 295 291 289 290 292 296 298
267 268 271 274 278 280 281 281 284 286 289 290 295 296 299 299 299 298 302 303 305 306 304 299 299 298 299 296 295 298 302 302 297 296 298 298 294 290 287 291 296 293 294
266 269 270 271 274 278 281 284 285 287 293 296 296 296 296 297 295 298 302 304 306 301 300 298 297 296 297 298 294 297 297 301 294 295 295 293 292 284 282 284 292 296 297
269 271 274 275 275 275 281 286 286 290 294 298 293 294 294 297 300 301 300 298 300 294 294 296 295 294 298 296 291 298 299 295 292 294 290 288 287 280 280 283 281 284 291
266 269 274 276 278 284 287 288 288 287 293 291 290 292 297 299 299 297 295 291 293 292 293 294 296 298 299 296 284 290 294 293 286 287 287 285 283 277 277 281 281 284 287
266 269 271 276 279 282 283 288 287 289 290 289 292 294 296 295 292 291 290 288 292 293 296 295 297 297 298 295 287 284 287 290 289 285 283 283 283 278 275 277 280 284 286
265 272 274 277 278 282 285 288 292 288 290 290 291 290 294 292 291 285 287 293 292 294 294 296 297 297 298 291 288 288 288 290 290 289 283 283 283 282 279 276 274 276 278
275 277 277 273 277 278 285 287 290 293 293 289 287 288 287 286 285 288 289 288 289 291 296 297 298 297 297 294 291 291 291 292 292 290 285 281 280 279 279 278 276 274 273
271 275 277 277 280 287 289 293 294 292 285 284 284 287 286 287 286 289 289 289 292 295 295 297 298 297 295 292 290 290 290 291 290 290 287 280 278 275 275 274 274 273 270
273 279 282 277 282 286 290 291 291 283 284 286 285 282 286 291 292 291 292 296 297 296 295 295 296 294 293 291 289 290 290 291 291 289 285 282 279 276 275 274 273 270 270
279 277 281 280 282 284 289 288 290 288 288 293 292 293 297 298 297 297 295 294 295 293 293 295 295 294 291 289 289 290 289 288 287 285 284 282 280 279 278 277 275 273 270
278 280 281 280 281 284 286 288 281 276 280 285 290 291 291 291 292 293 293 291 292 293 294 294 293 292 291 290 289 288 287 286 284 284 283 281 280 279 278 277 276 274 272
281 279 278 280 278 276 265 266 266 269 273 274 278 282 286 289 289 292 293 292 291 292 292 292 292 291 290 288 288 288 287 287 286 284 284 283 281 280 278 276 275 274 272
279 278 285 282 271 253 273 253 259 257 262 269 274 280 284 287 290 292 292 292 292 292 291 290 288 287 287 288 289 288 287 286 285 285 283 282 281 280 279 277 275 272 270
281 281 241 266 266 244 258 262 266 267 272 276 279 285 288 290 290 292 293 293 292 291 291 291 291 290 289 287 285 283 281 281 280 279 277 276 274 273 271 268 267 267 267
286 286 279 274 283 283 280 278 277 277 283 288 286 287 289 290 291 290 290 292 293 293 292 291 290 290 289 288 287 285 283 282 280 279 278 276 275 273 271 269 266 263 261
287 286 284 284 283 282 283 284 285 286 287 289 290 290 291 291 292 294 294 294 294 294 294 295 295 294 294 293 291 290 288 286 284 281 280 278 276 275 274 273 270 267 264
294 292 291 291 291 288 287 286 287 287 287 289 292 293 293 293 292 293 295 297 298 300 300 300 298 296 295 293 290 288 287 287 286 286 283 280 278 276 274 273 273 272 269
297 295 293 293 293 292 291 292 293 293 294 294 294 293 294 296 299 301 302 304 304 303 301 299 299 297 295 295 293 291 291 289 287 286 286 285 284 283 281 279 275 270 266
Height
10870 10870 10874 10875 10870 10869 10868 10869 10868 10868 10866 10864 10862 10860 10857 10852 10849 10845 10840 10835 10830 10827 10823 10817 10810 10803 10794 10785 10777 10769 10764 10757 10749 10742 10739 10737 10733 10730 10726 10724 10721 10717 10714
10858 10860 10863 10864 10862 10861 10859 10859 10857 10855 10854 10852 10850 10847 10844 10841 10838 10834 10828 10823 10818 10813 10808 10802 10796 10788 10778 10769 10761 10755 10748 10743 10737 10731 10726 10724 10723 10721 10720 10716 10713 10710 10707
10846 10850 10852 10852 10850 10850 10850 10848 10845 10843 10841 10839 10836 10833 10829 10825 10823 10819 10814 10810 10805 10800 10795 10788 10781 10771 10763 10757 10747 10740 10736 10732 10729 10724 10719 10716 10713 10712 10710 10707 10703 10702 10698
10839 10839 10839 10842 10840 10841 10839 10837 10834 10832 10830 10827 10824 10820 10815 10812 10809 10804 10799 10794 10790 10786 10778 10772 10766 10756 10749 10744 10737 10732 10728 10723 10718 10716 10712 10711 10707 10703 10702 10700 10697 10694 10692
10828 10830 10831 10830 10830 10829 10827 10826 10825 10821 10819 10814 10811 10806 10802 10798 10793 10789 10783 10778 10773 10770 10765 10758 10749 10744 10737 10732 10728 10721 10721 10715 10709 10705 10703 10702 10700 10697 10693 10692 10691 10689 10685
10820 10820 10817 10817 10818 10817 10817 10816 10813 10810 10806 10801 10797 10792 10788 10784 10779 10774 10768 10764 10760 10756 10751 10745 10738 10731 10725 10719 10717 10713 10710 10707 10702 10696 10694 10693 10691 10688 10685 10683 10682 10681 10680
10810 10810 10809 10808 10807 10807 10806 10804 10802 10798 10793 10789 10785 10780 10775 10770 10765 10760 10755 10751 10746 10741 10737 10731 10728 10721 10714 10710 10708 10704 10701 10696 10692 10689 10684 10683 10682 10679 10677 10676 10676 10674 10674
10800 10800 10798 10799 10798 10796 10794 10792 10790 10785 10781 10776 10771 10767 10761 10756 10751 10747 10742 10737 10733 10729 10723 10719 10713 10710 10706 10703 10699 10696 10692 10688 10684 10682 10678 10675 10674 10672 10671 10670 10671 10670 10669
10789 10788 10789 10789 10788 10787 10782 10782 10778 10774 10768 10763 10757 10754 10747 10743 10739 10732 10728 10724 10720 10715 10710 10705 10701 10699 10696 10694 10690 10687 10684 10680 10677 10674 10672 10669 10667 10666 10664 10663 10662 10664 10663
10780 10779 10778 10780 10778 10774 10773 10771 10766 10762 10756 10750 10744 10740 10734 10730 10725 10719 10715 10708 10704 10700 10698 10693 10690 10687 10684 10681 10678 10677 10674 10671 10668 10666 10664 10662 10660 10659 10658 10656 10654 10653 10654
10769 10769 10769 10767 10767 10765 10761 10758 10754 10748 10743 10737 10731 10727 10722 10717 10711 10704 10701 10695 10691 10686 10684 10680 10677 10675 10673 10671 10668 10666 10662 10659 10657 10656 10655 10654 10652 10649 10648 10647 10647 10646 10645
10760 10760 10759 10757 10754 10753 10750 10746 10742 10736 10730 10723 10716 10712 10709 10703 10697 10692 10687 10684 10679 10675 10671 10669 10666 10661 10658 10657 10656 10655 10652 10649 10647 10645 10644 10644 10643 10641 10638 10636 10636 10636 10637
10750 10750 10751 10748 10747 10742 10736 10735 10730 10724 10716 10708 10702 10698 10696 10692 10684 10680 10674 10671 10666 10662 10659 10656 10653 10649 10645 10642 10641 10640 10640 10639 10637 10634 10633 10632 10631 10631 10629 10628 10626 10625 10625
10744 10742 10741 10739 10734 10731 10725 10720 10716 10708 10702 10691 10686 10683 10681 10678 10673 10668 10662 10659 10655 10652 10648 10643 10638 10635 10632 10628 10626 10625 10624 10625 10624 10622 10619 10618 10617 10616 10617 10616 10615 10615 10614
10735 10731 10728 10728 10724 10719 10713 10707 10701 10691 10684 10676 10671 10669 10666 10662 10660 10657 10653 10648 10644 10639 10635 10630 10625 10621 10617 10614 10611 10608 10606 10607 10608 10608 10605 10605 10604 10602 10601 10602 10603 10603 10603
10723 10721 10719 10716 10710 10704 10696 10692 10686 10676 10668 10661 10661 10657 10651 10652 10649 10644 10639 10634 10628 10624 10620 10616 10611 10607 10603 10598 10594 10592 10589 10589 10589 10589 10588 10587 10588 10587 10586 10586 10586 10587 10589
10711 10709 10708 10704 10697 10691 10685 10680 10673 10661 10653 10650 10647 10649 10645 10642 10636 10631 10626 10620 10614 10609 10604 10600 10596 10592 10588 10583 10579 10574 10570 10568 10567 10567 10567 10567 10567 10568 10569 10569 10570 10571 10572
10700 10698 10696 10691 10683 10677 10675 10667 10656 10645 10639 10638 10634 10631 10628 10624 10620 10616 10611 10605 10600 10594 10589 10584 10580 10576 10573 10567 10562 10558 10553 10551 10548 10546 10545 10544 10544 10544 10545 10547 10548 10550 10552
10687 10685 10681 10677 10672 10668 10666 10658 10648 10639 10634 10629 10626 10622 10618 10614 10608 10603 10597 10592 10586 10579 10574 10568 10564 10560 10555 10549 10545 10541 10535 10532 10528 10526 10524 10524 10523 10522 10520 10521 10523 10525 10527
10672 10670 10667 10667 10662 10656 10656 10652 10645 10637 10629 10622 10616 10611 10608 10602 10595 10588 10582 10576 10570 10565 10559 10552 10546 10540 10536 10531 10525 10520 10515 10510 10506 10502 10500 10498 10497 10496 10496 10496 10497 10499 10500
10659 10658 10659 10654 10651 10652 10643 10639 10633 10628 10620 10614 10608 10602 10595 10588 10580 10573 10566 10558 10552 10547 10541 10534 10528 10521 10516 10512 10507 10501 10494 10489 10485 10478 10475 10471 10467 10464 10462 10463 10466 10468 10469
10649 10649 10658 10647 10640 10637 10631 10626 10623 10617 10613 10605 10595 10588 10581 10573 10564 10556 10548 10540 10534 10527 10522 10515 10507 10500 10494 10490 10484 10480 10475 10467 10461 10451 10445 10439 10435 10431 10425 10427 10431 10432 10434
10640 10639 10640 10636 10631 10627 10623 10618 10612 10603 10595 10589 10581 10572 10566 10558 10549 10540 10532 10525 10517 10509 10500 10493 10486 10478 10470 10462 10454 10448 10443 10437 10433 10422 10411 10399 10393 10384 10380 10379 10383 10390 10393
10629 10627 10625 10622 10617 10613 10607 10602 10595 10588 10582 10574 10566 10558 10549 10541 10531 10523 10516 10506 10497 10488 10478 10469 10459 10449 10441 10431 10420 10410 10397 10388 10380 10380 10366 10356 10349 10334 10322 10323 10328 10333 10340
10621 10618 10615 10610 10606 10601 10595 10590 10582 10575 10567 10560 10552 10543 10534 10525 10516 10506 10497 10486 10476 10465 10454 10443 10431 10420 10409 10396 10384 10371 10357 10344 10330 10322 10320 10306 10298 10288 10280 10279 10280 10284 10286
10612 10608 10603 10598 10592 10585 10580 10574 10567 10558 10551 10544 10535 10526 10516 10505 10495 10485 10475 10464 10452 10441 10430 10416 10402 10386 10373 10356 10340 10325 10312 10301 10286 10272 10264 10256 10251 10238 10232 10228 10232 10242 10242